Showing default

COSMOS 841, 9022

Orbit data source: Space-Track

COSMOS 841, 9022 is a payload satellite owned by GUKOS RVSN (CIS) in LEO that was launched on Thu, 15 Jul 1976 UTC via a KOSMOS 11K65M launch vehicle from the Plesetsk Missile And Space Complex (PKMTR). Payload-class satellites include a variety of spacecraft equipped with specific instruments for various scientific and technological missions. These include communications satellites like Starlink; space stations such as the ISS; scientific satellites like the Hubble; Earth observation satellites from companies like Planet Labs, Umbra, and HawkEye 360; GPS; miniature CubeSats for education and research; and military/defense satellites.

Loading next visibility...
Identifier
9022, 1976-069A
Orbit
LEO
Country
Flag of CISCIS
Related business
Manufacturer
OKB-10
Mission
Spacecraft
Bus & Motor
STRELA-2M, Unknown motor
Mass
800 kg wet, 800 kg dry
Launch date (UTC)
1976-07-15 (50 years ago)
Launch vehicle
KOSMOS 11K65M
Launch site
Plesetsk Missile And Space Complex (PKMTR)
Object type
Payload
Rocket body
Debris
Shape & HBR
Unknown
Radar Cross Section
Large (>1 m²)

Expand to show TLE details & history
Last TLE update: 7 hours ago

TLE from 7 hours ago
0 COSMOS 841
1  9022U 76069A   26164.83192729  .00000108  00000-0  45512-4 0  9991
2  9022  74.0438 307.1795 0012437  26.7456 333.4336 14.36829685611892
Epoch: 2026-06-13T19:57Z
TLE epoch observation values (Epoch: 2026-06-13T19:57:58.517Z)
Latitude
-0.00005°
Longitude
105.5443°
Altitude
763.656 km
Speed
7.477 km/s
True Right ascension
20h 28m 43s
True Declination
0° 00' 00"
Sunlit
Object was in full shadow at epoch
Visualization orbit readout
Latitude
Unknown
Longitude
Unknown
Altitude
Unknown
Speed
Unknown
Apparent Right ascension
Unknown
Apparent Declination
Unknown
Sunlit
N/A
Visualization observer readout
Local Sidereal Time
13:08:27
Azimuth
Unknown
Elevation
Unknown
Doppler factor
Unknown
Orbital elements
Apogee altitude
775.501 km
Perigee altitude
757.729 km
Semi-major axis
7,144.752 km
Eccentricity
0.00124
Inclination
74.0438°
RAAN
307.1795°
Arg. of periapsis
26.7456°
True anomaly
333.36977°
Mean anomaly
333.4336°
Eccentric anomaly
333.4017°
Mean motion
3.59387 °/min
Orbital period
100.17 mins
BSTAR
0.000045512
Loading maneuver chart data...
Computing Atmospheric mass density...
Loading historical data...
Loading historical data...
Loading historical data...
Loading historical data...
Loading historical data...
Loading historical data...
Loading historical data...
Other satellites on launch #69 in the year 1976 (1976-07-15 UTC)

Documentation

Showing up to 5 results
|